Temperature
18 17 17 17 17 17 17 17 17 17 17 17 17 17 17 17 17 18 17 18 18 18 17 17 17 17 17 17 17 17 17 17 17 17 17 17 17 16 16 16 16 16 16
17 17 17 17 17 17 17 17 17 17 17 17 17 17 17 17 17 17 17 18 18 18 17 17 17 17 17 17 17 17 17 17 17 17 16 16 16 16 16 16 16 16 16
17 17 17 17 17 17 17 17 17 17 17 17 17 17 17 17 17 17 17 17 17 17 18 17 17 17 17 17 17 17 17 17 17 17 16 16 16 16 16 16 16 16 16
17 17 17 17 17 17 17 17 17 17 17 17 17 17 17 17 17 17 17 17 17 17 17 17 17 17 17 17 17 17 17 17 17 16 16 16 16 16 16 16 16 16 16
17 17 17 17 17 17 17 17 17 17 17 17 18 18 18 18 17 17 17 17 17 17 17 17 17 17 17 17 17 17 17 17 17 16 16 16 16 16 16 16 16 16 16
17 17 17 17 17 17 17 17 17 17 17 17 18 18 17 18 17 17 17 17 17 17 17 17 17 17 17 17 17 17 17 17 17 17 16 16 16 16 16 16 16 16 16
17 17 17 17 17 17 17 17 17 17 17 17 18 18 18 18 18 17 17 17 17 17 17 17 17 17 17 17 17 17 17 17 17 17 16 16 16 16 16 16 16 16 16
18 18 18 17 18 18 17 17 17 17 17 17 17 18 19 19 18 18 17 17 17 17 17 17 17 17 16 16 17 17 17 17 17 16 16 16 16 16 16 16 16 16 15
18 18 18 18 18 18 18 17 17 17 17 17 17 18 19 20 19 18 17 17 17 17 17 17 17 16 16 16 16 16 17 17 16 16 16 16 16 16 16 16 15 16 15
18 18 18 18 18 18 18 17 17 17 17 17 18 17 17 18 18 19 18 18 17 17 17 17 17 16 16 16 16 16 17 16 16 16 16 16 16 16 16 15 15 15 15
18 18 18 18 18 18 18 17 17 17 17 17 17 17 17 17 17 18 18 18 18 17 17 16 16 16 16 16 16 16 16 16 16 16 16 16 16 15 15 15 15 15 15
18 18 18 18 18 18 18 18 17 17 17 17 17 17 17 17 17 17 18 18 18 17 17 16 16 16 16 16 16 16 16 16 16 16 16 15 15 15 15 15 15 15 15
18 18 18 18 18 18 17 17 17 17 17 17 17 17 17 17 17 17 17 17 17 17 17 16 16 16 16 15 15 16 16 16 16 15 15 15 15 15 15 15 15 15 15
18 18 18 18 18 18 17 17 17 17 17 17 17 17 16 16 16 16 16 17 17 17 17 17 16 16 15 15 15 15 15 15 15 15 15 15 15 15 15 15 15 15 15
18 18 18 18 18 17 17 17 17 17 17 17 16 16 16 16 16 16 16 16 16 17 17 17 16 16 15 15 15 15 15 15 15 15 15 15 15 15 15 15 15 15 15
18 18 18 18 18 17 17 17 17 17 16 16 16 16 16 16 16 16 16 16 16 16 17 17 16 15 15 15 15 14 14 15 15 15 15 15 15 15 14 14 14 14 14
18 18 17 17 17 17 17 17 17 16 16 16 16 16 16 16 15 15 15 15 15 15 16 16 15 15 14 14 14 14 14 14 14 14 15 15 15 15 14 14 14 14 14
17 17 17 17 17 17 17 17 16 16 16 16 16 16 15 15 15 15 15 15 15 15 15 15 15 15 14 14 14 14 14 14 14 14 14 14 14 14 14 14 14 14 14
17 17 17 17 17 17 16 16 16 16 16 15 15 15 15 15 15 15 15 15 15 15 14 14 15 15 14 14 14 14 14 14 14 14 14 14 14 14 14 14 14 14 13
17 17 16 16 16 16 16 16 16 16 15 15 15 15 15 15 15 15 15 14 14 14 14 14 15 15 14 14 14 14 14 14 14 14 14 14 14 14 14 13 13 13 13
17 16 16 16 16 16 16 16 15 15 15 15 15 15 15 15 15 15 14 14 14 14 14 14 15 15 14 14 14 14 14 14 14 14 13 13 13 13 13 13 13 13 13
16 16 16 16 15 15 15 15 15 15 14 14 14 14 14 14 15 14 14 14 14 13 14 14 14 14 14 14 13 13 13 13 14 13 13 13 13 13 13 13 13 13 13
16 16 15 15 15 15 15 15 15 14 14 14 14 14 14 14 14 14 14 14 13 14 13 13 13 13 13 13 13 13 13 13 13 13 13 13 13 13 13 13 13 13 12
16 15 15 15 15 15 15 15 15 14 14 14 13 13 13 13 13 13 13 13 13 13 13 13 13 13 12 13 12 12 12 13 13 13 13 13 13 13 13 13 12 12 12
15 15 15 15 15 15 15 15 14 14 13 13 13 13 13 13 13 13 13 13 13 13 13 13 13 13 13 12 12 12 12 12 13 13 13 12 13 13 12 12 12 12 12
15 15 15 15 15 14 14 14 14 13 13 13 13 13 13 13 13 13 13 12 12 12 12 12 12 12 12 12 12 12 12 12 13 13 12 12 12 12 12 12 12 12 12
Wind_Speed
4 5 4 4 4 4 4 4 4 4 4 4 3 3 2 1 1 1 4 8 5 4 4 4 4 5 5 7 7 8 9 10 10 10 10 10 10 10 10 9 9 9 10
5 4 4 4 4 4 4 3 4 3 3 3 3 2 1 1 1 0 1 5 7 5 4 3 3 3 4 5 6 7 8 9 10 10 10 10 10 10 10 10 10 9 10
5 3 4 3 4 4 3 3 4 3 3 3 2 2 1 1 1 1 1 1 3 7 6 3 2 2 3 4 5 5 6 8 9 9 9 10 11 11 11 11 10 10 10
4 3 3 3 3 2 3 3 3 3 3 2 2 1 1 1 1 0 0 0 1 0 4 5 3 2 2 3 4 4 4 5 7 8 8 9 10 11 11 11 11 10 10
3 2 3 2 1 2 2 2 3 2 2 2 1 1 1 1 0 0 1 0 1 1 0 6 5 4 2 2 2 3 4 4 5 6 7 8 9 10 11 11 11 11 10
2 2 2 2 1 2 2 2 2 2 1 1 1 1 0 1 0 1 1 0 1 0 1 1 2 5 5 3 2 3 3 3 5 5 6 7 8 9 10 11 11 11 11
2 1 2 1 0 1 1 1 1 1 1 0 0 1 1 1 1 1 0 1 0 0 0 0 1 0 3 6 4 3 3 3 4 5 6 7 7 7 8 10 10 10 11
1 1 1 1 0 0 1 0 1 1 0 0 1 1 1 2 2 1 0 0 1 1 0 0 0 1 2 2 3 5 5 5 4 5 5 6 7 7 8 8 9 9 10
0 1 1 1 1 1 1 1 1 2 1 1 1 2 2 1 0 2 1 0 1 1 1 1 1 1 2 2 1 4 4 5 5 6 6 7 7 7 8 9 9 10 10
0 1 1 1 2 2 1 2 0 2 2 2 1 1 2 3 2 1 1 1 1 1 2 2 1 1 1 1 1 1 2 4 5 6 6 6 6 7 7 8 8 10 10
1 1 1 1 2 2 1 2 1 2 2 2 2 1 1 2 3 3 3 3 2 2 2 2 2 1 1 1 1 1 2 3 4 5 5 5 6 6 7 7 7 8 8
1 1 1 1 2 2 1 2 2 2 2 3 3 2 2 2 2 3 4 4 3 3 2 2 3 2 2 1 1 3 1 1 2 3 4 4 5 5 5 5 6 7 7
1 0 1 2 2 2 2 2 2 3 3 3 3 3 2 3 3 4 4 4 5 4 3 3 3 2 2 2 0 2 1 1 1 3 3 4 4 4 4 5 5 6 6
2 1 2 2 3 3 3 3 3 3 3 3 3 3 3 3 3 3 4 5 5 5 4 3 2 2 1 2 1 2 2 3 2 3 4 4 4 4 4 4 4 5 5
2 1 2 2 2 2 2 3 2 3 3 3 3 3 3 3 3 4 4 5 5 6 5 2 2 2 2 2 0 3 3 3 4 4 4 4 4 4 4 4 4 4 5
3 3 3 2 2 2 2 3 3 2 3 3 3 3 3 4 3 4 4 4 5 6 6 3 3 3 2 3 2 4 4 3 6 6 5 4 4 4 5 5 5 5 5
2 3 3 2 2 2 2 2 3 3 4 3 3 3 4 4 4 4 4 4 4 5 6 5 4 3 3 5 3 4 5 5 5 7 6 5 5 6 6 6 6 6 6
2 2 2 2 2 2 2 3 3 4 4 4 4 4 5 4 4 5 4 5 4 5 6 7 5 4 4 5 5 6 5 5 5 6 8 7 7 7 7 7 7 6 6
2 2 2 2 3 3 3 3 3 4 5 5 5 5 5 5 5 5 5 5 5 5 6 7 7 4 5 4 5 6 6 5 6 5 8 9 9 8 8 8 8 7 7
2 2 2 3 3 3 3 3 3 4 4 4 5 5 5 5 6 6 6 6 6 7 6 7 7 5 5 4 5 5 5 4 5 5 4 5 8 11 11 10 9 8 8
2 2 2 2 2 3 2 3 4 4 4 4 4 5 4 4 4 5 6 6 6 7 7 6 7 6 5 4 5 5 6 5 5 5 5 5 5 6 7 10 11 9 8
2 2 2 3 3 3 3 3 4 4 4 5 5 5 4 4 4 5 6 7 7 8 8 7 7 6 6 6 5 6 6 6 6 4 5 6 5 5 5 6 6 9 9
2 2 3 3 3 2 1 2 4 5 5 4 5 5 5 4 4 5 5 8 8 8 9 9 8 8 7 6 6 7 6 7 7 5 5 6 6 6 5 4 7 9 10
2 2 3 2 2 1 0 2 4 5 5 5 5 5 5 5 5 6 6 6 6 6 6 7 7 8 7 6 7 8 8 7 7 5 5 7 6 6 6 4 6 9 10
3 3 2 2 2 2 0 2 5 5 4 5 5 5 5 5 4 6 6 6 6 6 4 5 6 7 7 7 7 6 7 7 6 5 4 6 6 6 6 5 4 9 11
3 3 2 3 3 3 1 2 4 4 4 4 4 4 2 3 3 4 5 6 6 6 6 5 5 7 8 8 8 8 7 7 6 6 4 5 6 6 5 4 4 4 6
Wind_Direction
61 60 52 45 52 75 89 89 91 93 102 110 110 104 96 102 112 156 139 145 162 180 192 199 207 208 207 209 208 209 204 203 203 204 204 205 208 209 211 211 211 214 215
63 55 62 52 56 63 68 79 90 96 93 95 105 99 86 105 130 200 154 148 160 175 191 196 208 209 211 214 213 212 210 207 207 207 206 206 207 207 209 213 215 218 218
73 67 63 58 57 67 80 88 91 97 106 106 104 105 102 76 78 63 335 312 166 168 174 185 203 214 221 208 206 205 207 207 206 208 211 211 210 210 212 215 217 218 221
77 72 64 57 61 69 77 90 94 93 86 83 90 78 93 110 84 66 42 25 339 68 163 171 189 205 201 201 198 198 202 207 212 212 216 215 211 212 214 216 217 221 225
78 79 73 62 75 78 74 76 88 82 93 83 104 117 91 98 94 51 37 60 80 4 27 148 172 186 184 193 199 202 203 208 211 217 221 221 219 216 216 217 220 223 226
77 71 96 83 74 84 83 73 79 81 76 89 38 64 52 31 23 53 311 98 108 133 21 53 169 177 179 185 190 206 213 215 213 215 224 228 229 224 221 220 222 224 224
65 66 52 86 103 101 100 131 155 134 112 73 199 167 166 173 125 135 101 346 83 83 38 7 275 279 173 180 192 212 220 225 222 218 223 230 234 231 231 225 224 226 228
21 51 40 333 11 142 155 186 219 262 228 171 290 274 213 172 167 153 164 201 320 283 236 227 269 251 270 205 165 198 219 231 229 223 223 226 228 233 235 233 229 228 227
8 19 353 325 308 266 214 241 238 250 278 256 296 303 298 326 323 167 170 174 322 307 288 278 233 242 245 242 225 181 207 232 235 234 231 229 230 232 238 236 233 229 223
282 263 279 296 289 299 302 261 241 282 276 286 264 293 326 337 298 276 209 173 212 251 283 283 271 202 243 245 216 52 192 226 237 237 237 235 234 239 242 242 238 226 223
230 249 248 256 268 284 300 310 297 286 279 294 299 297 290 269 276 292 300 304 277 256 256 261 263 266 262 275 271 60 161 219 238 239 241 245 248 250 250 248 239 227 225
224 257 256 265 258 270 241 243 260 253 280 296 296 294 292 293 295 288 289 286 294 286 267 264 260 259 257 255 54 65 107 200 240 246 249 253 250 250 252 253 246 238 235
270 306 288 265 271 266 251 244 236 260 260 268 274 280 290 279 290 290 289 295 298 285 263 245 237 251 256 259 136 104 136 178 252 250 251 254 251 246 248 253 254 248 244
299 322 284 275 270 264 253 241 244 242 243 255 265 281 279 278 281 278 281 290 290 282 261 257 244 243 276 276 55 225 219 172 224 240 248 244 241 244 246 250 252 245 243
287 287 279 277 275 270 267 255 254 254 249 255 259 258 276 284 274 279 279 279 283 289 286 257 244 238 258 272 248 265 264 183 208 228 241 240 236 240 246 245 244 243 242
304 296 289 284 279 268 254 251 245 241 255 258 271 288 282 280 288 278 277 277 274 279 284 287 272 267 286 281 234 269 265 204 209 214 222 231 231 233 235 236 238 240 242
289 290 293 292 280 269 262 258 262 245 249 253 254 252 261 282 282 283 277 272 274 271 272 277 276 267 261 275 271 266 258 254 232 200 208 219 230 232 231 229 231 235 241
281 285 285 280 273 270 264 266 272 266 259 255 253 257 263 263 266 273 278 276 275 273 271 277 276 267 258 259 261 264 267 264 262 188 194 213 222 227 227 229 230 231 234
288 282 272 273 277 280 279 278 276 276 273 271 271 267 265 265 267 271 270 272 272 267 265 268 270 268 265 262 267 264 266 264 263 216 196 203 211 219 221 223 226 227 229
283 292 285 275 274 277 283 291 290 284 279 279 278 276 273 270 270 272 271 270 271 272 265 265 268 263 260 258 259 266 265 255 260 261 240 225 206 209 214 215 219 223 225
277 288 289 287 287 282 301 317 296 286 284 283 283 281 280 289 303 290 288 287 280 273 272 269 270 269 265 266 263 268 271 267 255 260 259 246 228 232 224 216 215 220 224
269 276 276 278 281 304 36 354 303 293 289 289 288 287 279 263 265 253 261 272 277 274 276 277 275 275 269 267 270 271 275 275 271 257 259 261 254 253 245 242 198 202 216
254 270 284 288 293 320 49 315 301 293 292 295 294 292 295 306 295 295 263 241 248 249 258 268 278 279 277 275 272 269 271 275 278 277 268 266 262 263 259 241 178 199 212
253 260 270 279 283 296 72 300 295 276 281 283 284 288 292 300 315 314 301 299 290 276 261 258 271 278 281 281 272 267 271 269 264 261 265 273 272 271 269 257 194 200 210
251 255 262 270 271 286 341 298 293 282 280 282 283 289 292 299 334 313 295 295 294 291 269 255 258 265 276 277 275 272 268 266 267 264 260 269 275 276 271 265 225 197 208
249 259 269 277 274 286 269 260 276 284 292 289 281 275 272 286 314 313 294 298 297 300 304 298 273 255 254 250 241 250 261 264 268 269 264 262 272 282 280 272 270 245 226
Height
1522 1522 1522 1522 1522 1523 1523 1523 1524 1524 1525 1526 1528 1528 1529 1530 1530 1531 1530 1529 1529 1529 1530 1530 1530 1530 1530 1530 1530 1531 1532 1533 1534 1535 1536 1537 1538 1539 1540 1541 1542 1543 1544
1524 1524 1524 1524 1524 1524 1524 1525 1525 1526 1527 1528 1528 1529 1530 1530 1530 1531 1531 1530 1529 1529 1529 1529 1529 1529 1528 1528 1529 1529 1530 1531 1532 1533 1534 1534 1535 1536 1537 1539 1540 1541 1542
1526 1526 1526 1526 1526 1526 1526 1526 1527 1527 1528 1529 1529 1530 1530 1530 1531 1531 1531 1531 1530 1529 1529 1528 1528 1528 1527 1527 1527 1528 1528 1529 1530 1530 1531 1532 1533 1534 1535 1536 1537 1538 1539
1528 1528 1528 1528 1528 1528 1528 1528 1528 1529 1529 1530 1530 1530 1531 1530 1531 1531 1531 1530 1530 1530 1529 1528 1527 1527 1526 1526 1526 1526 1527 1527 1528 1528 1529 1530 1530 1531 1532 1533 1534 1535 1536
1530 1530 1530 1529 1529 1530 1530 1530 1530 1530 1530 1530 1531 1531 1531 1531 1531 1531 1530 1530 1529 1529 1529 1528 1527 1527 1526 1526 1526 1525 1526 1526 1526 1526 1526 1527 1528 1529 1530 1531 1531 1532 1533
1532 1531 1531 1531 1531 1531 1531 1530 1530 1530 1531 1531 1531 1531 1531 1531 1531 1530 1530 1530 1529 1529 1529 1528 1527 1526 1525 1525 1525 1525 1525 1524 1524 1524 1524 1525 1525 1526 1527 1528 1529 1529 1530
1533 1532 1533 1532 1532 1532 1531 1532 1531 1531 1531 1531 1531 1532 1531 1531 1531 1530 1530 1530 1529 1528 1527 1527 1526 1526 1525 1524 1524 1524 1523 1523 1523 1523 1523 1523 1523 1523 1524 1525 1526 1526 1527
1534 1534 1533 1533 1532 1532 1531 1531 1531 1531 1531 1531 1531 1531 1531 1532 1530 1530 1529 1528 1528 1528 1527 1526 1525 1524 1524 1524 1522 1522 1522 1522 1521 1521 1521 1521 1521 1521 1521 1522 1522 1523 1523
1534 1534 1533 1533 1532 1532 1532 1531 1531 1531 1531 1531 1530 1531 1530 1529 1529 1529 1528 1528 1527 1526 1526 1525 1524 1523 1522 1522 1521 1520 1520 1520 1519 1519 1519 1518 1518 1518 1518 1518 1518 1518 1519
1534 1533 1533 1532 1532 1532 1531 1531 1530 1530 1530 1530 1530 1529 1530 1529 1529 1528 1528 1527 1526 1525 1524 1524 1523 1522 1521 1520 1519 1518 1518 1517 1517 1517 1516 1516 1516 1516 1516 1515 1513 1513 1516
1533 1533 1532 1532 1531 1531 1530 1529 1529 1529 1529 1529 1529 1529 1528 1528 1528 1528 1527 1526 1525 1524 1523 1522 1522 1521 1520 1519 1518 1517 1516 1515 1515 1514 1514 1514 1514 1513 1513 1512 1512 1512 1513
1532 1531 1531 1530 1530 1530 1529 1528 1528 1528 1527 1527 1527 1527 1527 1527 1527 1527 1526 1525 1524 1523 1522 1521 1520 1519 1519 1518 1516 1515 1514 1513 1513 1512 1512 1512 1511 1511 1510 1510 1510 1510 1511
1532 1530 1530 1529 1529 1528 1528 1527 1527 1527 1526 1526 1526 1526 1526 1525 1525 1525 1524 1523 1522 1521 1520 1519 1518 1518 1517 1516 1514 1513 1512 1511 1511 1510 1510 1509 1509 1508 1508 1508 1508 1508 1508
1530 1529 1528 1528 1527 1527 1526 1526 1526 1525 1524 1524 1524 1523 1524 1524 1523 1523 1523 1522 1520 1519 1518 1518 1517 1516 1515 1514 1512 1511 1510 1509 1508 1508 1507 1507 1506 1506 1506 1505 1505 1505 1505
1529 1528 1527 1526 1526 1525 1525 1524 1524 1523 1523 1522 1522 1522 1521 1521 1521 1520 1520 1520 1519 1517 1516 1515 1514 1513 1512 1512 1510 1509 1508 1507 1506 1505 1504 1504 1503 1503 1503 1503 1502 1502 1502
1527 1526 1526 1525 1524 1524 1523 1523 1522 1522 1521 1520 1520 1519 1518 1519 1518 1518 1517 1517 1516 1516 1514 1513 1512 1511 1510 1509 1508 1506 1506 1504 1503 1502 1502 1501 1500 1500 1499 1499 1499 1499 1499
1525 1525 1524 1523 1523 1522 1522 1521 1521 1520 1519 1519 1518 1517 1516 1516 1516 1515 1515 1514 1513 1513 1511 1510 1509 1508 1506 1505 1505 1504 1503 1502 1501 1500 1499 1498 1497 1497 1496 1496 1495 1495 1495
1523 1523 1523 1522 1522 1521 1520 1519 1519 1518 1517 1517 1516 1515 1514 1514 1513 1513 1512 1511 1510 1509 1509 1507 1506 1505 1504 1503 1501 1501 1501 1500 1499 1497 1496 1495 1494 1494 1493 1492 1492 1491 1491
1522 1522 1521 1520 1519 1519 1518 1517 1516 1516 1515 1514 1514 1513 1512 1511 1510 1510 1509 1508 1507 1507 1506 1505 1504 1502 1501 1500 1499 1498 1497 1496 1496 1495 1493 1492 1491 1490 1489 1489 1488 1488 1487
1520 1520 1519 1518 1517 1516 1516 1515 1514 1513 1512 1512 1511 1510 1509 1508 1507 1506 1506 1505 1504 1503 1502 1501 1500 1499 1498 1497 1495 1495 1494 1493 1492 1492 1491 1489 1488 1487 1486 1485 1484 1484 1483
1518 1517 1516 1515 1515 1514 1513 1512 1511 1511 1510 1509 1508 1507 1506 1505 1504 1503 1503 1502 1501 1500 1499 1498 1497 1496 1495 1494 1493 1492 1491 1489 1488 1488 1488 1487 1486 1484 1483 1482 1481 1480 1479
1515 1515 1514 1513 1512 1512 1511 1509 1508 1508 1507 1506 1505 1504 1503 1502 1500 1499 1498 1497 1497 1496 1495 1494 1493 1492 1491 1490 1489 1489 1488 1487 1486 1486 1484 1484 1483 1481 1480 1479 1477 1476 1475
1513 1513 1512 1511 1510 1509 1507 1507 1506 1505 1504 1503 1502 1502 1501 1500 1498 1496 1495 1494 1493 1491 1491 1490 1489 1488 1487 1486 1486 1485 1484 1483 1482 1482 1481 1480 1479 1478 1477 1475 1473 1472 1471
1511 1510 1509 1508 1507 1506 1505 1504 1503 1502 1502 1500 1500 1499 1498 1496 1495 1493 1492 1491 1489 1488 1487 1486 1484 1484 1483 1482 1482 1481 1480 1479 1478 1478 1478 1477 1476 1474 1473 1471 1469 1468 1467
1508 1508 1507 1506 1505 1504 1503 1502 1501 1500 1499 1498 1497 1496 1494 1493 1492 1490 1489 1487 1486 1484 1483 1482 1480 1479 1478 1478 1477 1477 1477 1476 1475 1475 1474 1473 1472 1471 1469 1467 1465 1464 1463
1505 1505 1505 1504 1503 1502 1501 1500 1499 1498 1497 1496 1494 1493 1491 1490 1489 1487 1486 1484 1482 1481 1480 1479 1477 1475 1474 1474 1473 1473 1473 1473 1472 1471 1470 1469 1468 1467 1465 1464 1462 1461 1459